Torna al catalogo

SL-14 DEB

AttivoPO
NORAD 25199·DEBRIS·🇷🇺 Russia

Lanciato Aug 18, 1987 da Plesetsk Cosmodrome

Loading…

Prossimi Passaggi (prossime 24 ore)

TLE

AggiornatoSource: Space-Track

Epoca: Sep 14, 2026, 06:09 UTC

1 25199U 87068AA  26257.25685665  .00000640  00000-0  57947-3 0  9995
2 25199  82.3655 182.5600 0090816 243.2681 115.9162 13.80559579430924

Traccia SL-14 DEB in tempo reale con AllMySat

Download on the App Store